TimeCST,TemperatureF,Dew PointF,Humidity,Sea Level PressureIn,VisibilityMPH,Wind Direction,Wind SpeedMPH,Gust SpeedMPH,PrecipitationIn,Events,Conditions,WindDirDegrees,DateUTC
12:13 AM,28.4,19.4,69,29.88,10.0,West,12.7,21.9,N/A,,Clear,280,2012-12-04 06:13:00
12:34 AM,26.6,17.6,69,29.90,10.0,West,16.1,23.0,N/A,,Clear,280,2012-12-04 06:34:00
12:53 AM,26.6,15.8,64,29.90,10.0,West,19.6,-,N/A,,Clear,270,2012-12-04 06:53:00
1:13 AM,24.8,15.8,69,29.90,10.0,West,17.3,21.9,N/A,,Clear,280,2012-12-04 07:13:00
1:33 AM,24.8,15.8,69,29.91,10.0,West,16.1,-,N/A,,Clear,270,2012-12-04 07:33:00
1:53 AM,23.0,14.0,68,29.91,10.0,West,16.1,21.9,N/A,,Clear,280,2012-12-04 07:53:00
2:14 AM,21.2,12.2,68,29.92,10.0,WNW,18.4,31.1,N/A,,Clear,290,2012-12-04 08:14:00
2:54 AM,21.2,12.2,68,29.95,10.0,WNW,10.4,-,N/A,,Clear,290,2012-12-04 08:54:00
3:13 AM,19.4,12.2,74,29.95,10.0,WNW,11.5,19.6,N/A,,Clear,290,2012-12-04 09:13:00
3:33 AM,19.4,12.2,74,29.96,10.0,WNW,15.0,-,N/A,,Clear,290,2012-12-04 09:33:00
3:54 AM,19.4,14.0,80,29.97,10.0,WNW,10.4,-,N/A,,Clear,290,2012-12-04 09:54:00
4:13 AM,19.4,14.0,80,29.98,10.0,WNW,10.4,-,N/A,,Clear,290,2012-12-04 10:13:00
4:33 AM,17.6,14.0,86,29.98,10.0,WNW,6.9,-,N/A,,Clear,300,2012-12-04 10:33:00
4:54 AM,17.6,14.0,86,29.99,10.0,WNW,9.2,-,N/A,,Clear,300,2012-12-04 10:54:00
5:13 AM,17.6,14.0,86,30.00,10.0,NW,10.4,-,N/A,,Clear,310,2012-12-04 11:13:00
5:33 AM,17.6,12.2,79,30.01,10.0,WNW,15.0,-,N/A,,Clear,300,2012-12-04 11:33:00
5:54 AM,17.6,12.2,79,30.02,10.0,WNW,16.1,-,N/A,,Clear,290,2012-12-04 11:54:00
6:13 AM,15.8,10.4,79,30.03,10.0,WNW,15.0,20.7,N/A,,Clear,300,2012-12-04 12:13:00
6:33 AM,15.8,10.4,79,30.04,10.0,WNW,10.4,-,N/A,,Clear,290,2012-12-04 12:33:00
6:54 AM,15.8,10.4,79,30.06,10.0,WNW,12.7,-,N/A,,Scattered Clouds,290,2012-12-04 12:54:00
7:13 AM,15.8,10.4,79,30.07,10.0,WNW,15.0,-,N/A,,Mostly Cloudy,300,2012-12-04 13:13:00
7:33 AM,15.8,10.4,79,30.08,10.0,WNW,10.4,-,N/A,,Overcast,300,2012-12-04 13:33:00
7:54 AM,15.8,10.4,79,30.09,10.0,WNW,13.8,-,N/A,,Overcast,300,2012-12-04 13:54:00
8:13 AM,14.0,8.6,79,30.10,10.0,West,10.4,16.1,N/A,,Scattered Clouds,280,2012-12-04 14:13:00
8:33 AM,15.8,8.6,73,30.11,10.0,WNW,12.7,-,N/A,,Clear,300,2012-12-04 14:33:00
8:54 AM,15.8,10.4,79,30.13,10.0,WNW,11.5,-,N/A,,Clear,300,2012-12-04 14:54:00
9:13 AM,15.8,8.6,73,30.13,10.0,NW,15.0,21.9,N/A,,Clear,310,2012-12-04 15:13:00
9:33 AM,17.6,8.6,68,30.15,10.0,WNW,15.0,19.6,N/A,,Clear,300,2012-12-04 15:33:00
9:54 AM,17.6,8.6,68,30.16,10.0,NW,16.1,-,N/A,,Clear,310,2012-12-04 15:54:00
10:13 AM,17.6,8.6,68,30.17,10.0,NW,15.0,-,N/A,,Clear,310,2012-12-04 16:13:00
10:34 AM,17.6,8.6,68,30.18,10.0,WNW,15.0,-,N/A,,Clear,300,2012-12-04 16:34:00
10:53 AM,19.4,8.6,63,30.19,10.0,NW,15.0,-,N/A,,Clear,310,2012-12-04 16:53:00
11:13 AM,19.4,8.6,63,30.19,10.0,WNW,15.0,18.4,N/A,,Clear,300,2012-12-04 17:13:00
11:34 AM,21.2,8.6,58,30.19,10.0,WNW,11.5,-,N/A,,Clear,300,2012-12-04 17:34:00
12:14 PM,21.2,8.6,58,30.20,10.0,WNW,13.8,20.7,N/A,,Clear,300,2012-12-04 18:14:00
12:34 PM,21.2,10.4,63,30.20,10.0,NNW,11.5,17.3,N/A,,Clear,330,2012-12-04 18:34:00
12:53 PM,21.2,8.6,58,30.21,10.0,NW,15.0,21.9,N/A,,Clear,310,2012-12-04 18:53:00
1:14 PM,23.0,8.6,54,30.21,10.0,NW,12.7,18.4,N/A,,Clear,310,2012-12-04 19:14:00
1:34 PM,23.0,10.4,59,30.21,10.0,NW,11.5,16.1,N/A,,Clear,320,2012-12-04 19:34:00
1:53 PM,23.0,10.4,59,30.21,10.0,NW,11.5,-,N/A,,Clear,320,2012-12-04 19:53:00
2:14 PM,23.0,8.6,54,30.21,10.0,NW,10.4,-,N/A,,Clear,310,2012-12-04 20:14:00
2:34 PM,23.0,8.6,54,30.22,10.0,WNW,10.4,-,N/A,,Clear,300,2012-12-04 20:34:00
2:53 PM,23.0,10.4,59,30.22,10.0,WNW,10.4,-,N/A,,Clear,300,2012-12-04 20:53:00
3:14 PM,23.0,8.6,54,30.23,10.0,NW,10.4,-,N/A,,Clear,320,2012-12-04 21:14:00
3:34 PM,23.0,10.4,59,30.25,10.0,WNW,9.2,-,N/A,,Clear,300,2012-12-04 21:34:00
3:53 PM,21.2,10.4,63,30.26,10.0,NW,10.4,-,N/A,,Clear,320,2012-12-04 21:53:00
4:14 PM,21.2,10.4,63,30.27,10.0,NW,8.1,-,N/A,,Clear,310,2012-12-04 22:14:00
4:53 PM,17.6,8.6,68,30.28,10.0,NW,4.6,-,N/A,,Clear,310,2012-12-04 22:53:00
5:13 PM,17.6,10.4,73,30.28,10.0,NW,4.6,-,N/A,,Clear,320,2012-12-04 23:13:00
5:34 PM,17.6,10.4,73,30.28,10.0,NNW,4.6,-,N/A,,Clear,330,2012-12-04 23:34:00
5:53 PM,17.6,10.4,73,30.29,10.0,NNW,3.5,-,N/A,,Clear,330,2012-12-04 23:53:00
6:13 PM,17.6,10.4,73,30.30,10.0,Calm,Calm,-,N/A,,Clear,0,2012-12-05 00:13:00
6:33 PM,14.0,8.6,79,30.29,10.0,NW,3.5,-,N/A,,Clear,320,2012-12-05 00:33:00
6:54 PM,15.8,10.4,79,30.29,10.0,Calm,Calm,-,N/A,,Clear,0,2012-12-05 00:54:00
7:13 PM,15.8,10.4,79,30.29,10.0,Calm,Calm,-,N/A,,Clear,0,2012-12-05 01:13:00
7:33 PM,15.8,8.6,73,30.30,10.0,Calm,Calm,-,N/A,,Clear,0,2012-12-05 01:33:00
7:54 PM,12.2,8.6,85,30.32,10.0,Calm,Calm,-,N/A,,Clear,0,2012-12-05 01:54:00
8:13 PM,12.2,8.6,85,30.34,10.0,West,4.6,-,N/A,,Clear,280,2012-12-05 02:13:00
8:33 PM,12.2,8.6,85,30.34,10.0,Calm,Calm,-,N/A,,Clear,0,2012-12-05 02:33:00
8:54 PM,14.0,8.6,79,30.33,10.0,Calm,Calm,-,N/A,,Clear,0,2012-12-05 02:54:00
9:13 PM,14.0,10.4,86,30.33,10.0,North,3.5,-,N/A,,Clear,350,2012-12-05 03:13:00
9:33 PM,12.2,8.6,85,30.34,10.0,Calm,Calm,-,N/A,,Clear,0,2012-12-05 03:33:00
9:53 PM,12.2,8.6,85,30.35,10.0,Calm,Calm,-,N/A,,Clear,0,2012-12-05 03:53:00
10:13 PM,12.2,8.6,85,30.35,10.0,Calm,Calm,-,N/A,,Clear,0,2012-12-05 04:13:00
10:34 PM,10.4,8.6,92,30.36,10.0,Calm,Calm,-,N/A,,Clear,0,2012-12-05 04:34:00
10:53 PM,10.4,8.6,92,30.37,10.0,Calm,Calm,-,N/A,,Clear,0,2012-12-05 04:53:00
11:13 PM,10.4,8.6,92,30.37,10.0,Calm,Calm,-,N/A,,Clear,0,2012-12-05 05:13:00
11:34 PM,10.4,8.6,92,30.36,10.0,Calm,Calm,-,N/A,,Clear,0,2012-12-05 05:34:00
11:53 PM,10.4,6.8,85,30.36,10.0,Calm,Calm,-,N/A,,Clear,0,2012-12-05 05:53:00